Location: Lafig�re
(44.4503°N, 4.0357°E)
Time: 17:39:56
(UTC+00:00)

S-56A Canister/Altair - Pass Details

Date: 23 January 2021
Orbit: 631 x 2501 km, 38.9° (Epoch: 04 March)

Event Time Altitude Azimuth Distance (km) Brightness Sun altitude
Rises 05:37:56 0° 266° (W) 2,963 - -16.5°
Reaches altitude 10° 05:40:08 10° 259° (W) 2,126 - -16.2°
Exits shadow 05:41:41 20° 248° (WSW) 1,603 8.7 -15.9°
Maximum altitude 05:44:38 42° 189° (S) 1,132 8.4 -15.4°
Drops below altitude 10° 05:50:37 10° 120° (ESE) 2,819 11.7 -14.3°
Sets 05:53:57 0° 114° (ESE) 4,064 13.0 -13.7°
